Wind_Speed
18 19 20 21 21 20 17 17 18 17 18 17 17 19 19 17 17 16 16 17 18 17 16 17 19 19 20 20 21 20 18 17 15 14 15 15 14 14 14 14 15 16
18 18 19 20 20 20 18 17 17 17 18 18 17 17 18 18 18 18 17 16 16 16 15 16 18 20 21 22 22 22 21 20 19 16 14 14 15 15 14 14 15 16
21 20 19 18 19 20 19 17 17 17 18 19 18 18 18 18 19 19 19 18 16 16 16 19 19 19 20 22 23 23 22 21 20 20 17 15 16 16 14 15 16 15
23 22 20 18 18 19 20 19 18 18 18 18 18 18 17 17 20 21 21 20 19 17 17 18 19 19 19 22 23 23 22 20 20 20 20 19 18 18 16 16 16 15
24 23 22 20 19 19 19 19 19 19 20 18 17 18 18 19 20 19 18 20 20 19 17 17 18 17 18 20 22 22 22 21 20 20 20 21 21 20 20 19 17 16
25 24 23 21 21 20 19 19 19 21 22 20 18 18 18 19 20 18 18 19 18 18 17 17 17 17 17 19 19 20 20 20 21 20 19 20 21 21 21 19 18 18
27 25 24 23 22 21 22 21 20 20 20 18 17 18 17 18 18 19 20 18 16 17 17 16 17 17 17 18 18 18 18 18 19 20 19 19 20 21 21 19 18 19
27 26 26 24 21 21 23 22 18 18 18 17 18 19 19 18 17 19 20 19 18 19 17 15 17 18 18 18 18 18 18 19 19 19 21 22 22 22 21 20 20 20
25 25 25 24 22 21 22 22 20 19 18 17 18 19 20 20 18 18 19 20 22 21 19 18 18 18 19 19 19 19 19 19 19 19 20 21 22 23 23 22 23 23
22 22 21 20 20 20 21 22 22 21 20 19 18 18 19 19 19 18 17 17 20 22 23 23 21 19 19 18 19 20 21 20 20 20 21 21 21 21 22 23 25 25
19 20 20 18 18 19 19 20 22 23 22 20 18 17 17 17 17 16 15 15 16 18 21 23 23 22 21 19 17 17 19 21 22 22 22 22 21 21 21 22 24 24
16 18 18 16 17 18 19 20 22 23 23 21 19 18 18 18 17 15 13 14 15 16 18 20 21 23 23 22 20 19 19 22 22 21 21 22 23 23 23 23 23 22
13 15 14 14 17 19 20 20 21 21 20 19 19 19 19 18 18 17 16 17 16 16 17 18 19 21 22 24 24 24 24 23 21 20 21 22 23 24 24 25 25 25
17 17 15 13 15 19 20 19 20 20 18 17 18 19 18 17 16 16 17 18 18 17 17 16 17 19 20 22 23 24 25 25 24 23 24 25 25 25 25 25 26 26
19 18 15 12 11 15 17 16 17 17 16 16 17 17 15 14 14 14 15 17 18 17 17 16 17 18 18 20 22 22 23 24 26 27 29 29 27 26 25 24 24 24
17 15 14 13 12 13 13 13 14 15 16 15 15 13 13 13 13 12 13 14 14 15 16 16 17 17 17 18 20 20 21 22 25 28 29 29 27 26 25 25 25 24
15 13 13 14 14 14 12 12 13 13 13 12 11 11 13 13 12 11 11 12 12 13 13 14 15 14 15 17 17 18 19 20 22 25 26 27 27 26 26 25 24 22
12 12 12 13 14 14 12 12 12 12 12 11 11 12 12 11 11 10 10 10 10 11 11 12 14 14 15 16 16 17 18 18 19 20 23 25 26 26 27 25 23 21
10 10 11 12 12 12 12 12 12 12 12 11 11 11 10 10 10 9 9 9 10 11 11 11 14 15 15 15 16 17 18 18 18 19 20 22 23 24 26 25 25 25
9 9 10 10 10 11 12 12 12 12 11 10 10 10 10 10 9 9 9 10 10 11 10 11 13 14 14 14 14 13 14 15 17 18 19 21 21 21 23 24 25 27
8 8 8 8 8 9 10 10 10 9 9 9 9 10 10 9 10 10 10 10 10 10 11 11 12 13 13 14 14 13 13 14 14 15 17 19 20 21 22 23 24 25
10 9 8 8 7 8 8 7 7 7 7 8 8 9 9 9 9 9 9 9 9 10 11 12 12 12 13 14 15 15 15 15 15 14 14 15 17 19 20 21 21 21
8 8 7 7 6 6 6 6 6 6 7 7 7 7 7 6 7 7 8 9 9 10 11 11 11 12 14 15 15 15 15 15 15 16 15 14 15 16 17 19 18 18
5 5 4 3 3 4 4 4 4 5 5 5 5 5 5 5 6 7 8 9 9 10 10 10 11 11 12 13 13 13 13 14 14 14 14 14 16 16 17 18 19 18
4 3 2 2 2 2 3 3 3 3 3 3 4 4 4 5 5 6 7 8 8 8 7 8 9 10 10 10 10 11 12 11 10 10 11 12 13 13 14 15 15 16
5 5 4 4 2 1 1 1 2 2 2 3 3 4 4 4 3 3 4 5 7 7 6 5 7 8 9 10 11 13 13 12 10 8 9 9 9 8 8 8 10 11
Wind_Direction
213 213 209 207 208 208 209 210 210 210 210 213 219 222 217 215 218 219 218 225 237 245 241 232 226 226 227 228 228 224 223 228 226 232 245 245 246 247 242 242 246 247
216 214 212 212 213 212 212 213 212 210 213 215 216 224 225 219 220 222 220 225 234 240 245 242 236 234 231 231 232 226 223 227 224 223 234 240 244 247 244 246 247 245
219 218 215 212 213 213 211 213 216 214 214 217 217 226 231 222 219 221 222 225 227 229 238 244 243 242 238 233 232 231 229 231 228 225 227 234 242 248 246 246 249 248
221 222 220 216 212 212 211 211 217 218 216 217 219 226 231 224 221 222 224 226 226 225 231 241 245 243 240 236 233 233 234 234 234 233 234 234 237 245 247 246 249 250
221 223 223 221 217 219 219 213 213 218 217 215 217 222 226 230 230 228 227 228 227 226 228 237 244 242 237 238 236 233 232 236 239 237 237 237 235 239 243 246 247 245
223 224 224 224 223 223 223 218 215 220 220 216 216 220 225 233 232 226 229 233 230 228 229 232 238 237 234 238 243 241 237 239 244 244 244 243 240 239 242 246 250 249
225 227 226 224 224 225 224 221 218 221 223 220 219 220 225 232 230 225 229 234 230 228 228 229 234 237 235 234 241 249 249 246 245 247 249 248 247 246 244 242 248 256
225 227 227 222 219 221 224 223 219 220 223 223 222 222 223 226 228 230 230 228 230 230 226 225 231 237 237 234 236 242 246 245 243 245 250 251 252 252 250 244 241 246
219 222 226 221 215 216 222 223 220 219 221 225 229 230 228 226 228 235 236 232 235 238 232 226 227 230 232 234 237 238 241 245 245 243 247 251 253 255 255 252 247 246
211 216 219 215 214 216 221 224 222 220 219 221 228 231 230 229 231 238 240 239 243 246 241 235 232 231 230 230 235 240 243 246 246 244 244 247 252 256 258 258 259 259
212 220 217 211 214 218 222 227 224 220 220 220 224 232 234 236 242 247 247 245 247 252 250 245 240 238 236 234 236 243 246 246 246 246 246 246 249 250 252 255 260 266
213 223 220 211 212 219 225 227 222 219 222 223 225 232 239 244 247 248 248 246 244 249 255 255 251 246 244 242 241 244 247 247 248 247 245 246 248 248 247 247 248 254
206 219 220 212 213 221 227 229 228 226 224 222 223 230 240 247 246 241 243 246 245 247 252 255 257 256 252 249 247 245 245 247 250 251 250 250 252 253 253 251 249 250
206 216 224 223 216 218 223 230 238 236 228 227 233 240 245 248 248 244 244 246 248 252 253 252 257 259 255 254 253 250 248 247 247 249 253 255 255 258 260 259 259 259
207 212 223 230 211 205 213 225 236 233 228 232 237 241 247 251 253 252 248 248 249 251 252 252 256 261 261 260 260 260 258 254 249 247 250 254 257 259 263 264 265 264
208 207 221 232 215 206 216 227 231 226 221 226 231 238 247 252 254 255 254 254 253 251 252 255 260 264 265 265 267 270 270 263 256 252 253 256 259 261 264 266 267 266
208 206 222 233 222 214 220 222 220 217 217 224 235 243 246 248 252 258 262 262 262 261 260 262 266 269 268 270 272 273 272 268 263 260 259 259 260 263 265 267 270 270
208 211 216 221 218 214 214 214 213 217 226 235 241 241 242 248 254 261 267 269 273 275 273 272 273 273 271 271 272 272 271 270 269 268 266 263 263 266 268 269 274 277
199 203 201 205 210 209 208 212 217 223 230 235 237 238 241 249 254 260 268 273 275 274 276 279 277 273 269 269 271 274 275 274 272 270 268 266 267 270 272 271 272 272
180 185 191 194 198 202 205 213 222 227 232 236 240 243 246 252 259 264 268 270 270 271 271 272 274 274 274 273 274 277 280 278 274 270 269 270 271 273 275 274 272 270
168 172 180 181 191 202 208 219 231 236 240 243 246 247 248 256 264 265 266 267 267 270 268 267 273 277 275 275 278 282 286 286 281 275 272 272 273 274 275 274 274 275
167 170 176 179 191 203 210 223 238 245 248 250 251 250 249 255 260 260 262 265 267 270 270 271 278 280 275 275 278 280 282 285 285 281 276 272 272 273 274 275 276 279
167 171 178 183 190 198 207 222 235 245 254 258 257 254 250 254 261 261 264 269 272 273 274 277 281 284 282 279 277 277 280 284 286 284 281 277 276 277 278 278 279 279
163 171 182 184 183 189 205 227 245 253 262 267 265 265 269 273 276 276 275 279 284 286 286 288 289 288 284 281 279 281 283 286 288 287 282 275 273 275 278 281 282 281
140 146 150 145 149 169 197 232 253 254 256 269 276 280 284 284 282 277 279 287 297 301 302 301 301 295 286 283 287 288 288 291 294 291 283 276 274 274 275 279 283 282
113 118 123 128 136 153 175 219 267 278 274 274 278 283 288 292 289 283 294 311 318 320 326 323 312 302 295 293 295 295 296 301 301 285 271 270 274 277 280 283 282 277
Height
1545 1545 1546 1547 1549 1550 1552 1554 1555 1556 1558 1559 1559 1560 1561 1562 1564 1564 1564 1565 1565 1565 1565 1566 1567 1568 1570 1570 1571 1572 1573 1574 1575 1576 1576 1576 1576 1577 1577 1578 1579 1579
1543 1544 1544 1545 1547 1548 1550 1551 1553 1554 1556 1557 1558 1558 1559 1560 1562 1562 1563 1564 1564 1564 1564 1565 1565 1566 1567 1568 1569 1570 1571 1572 1573 1574 1574 1574 1575 1575 1576 1577 1577 1578
1541 1542 1543 1544 1545 1547 1548 1549 1551 1552 1553 1554 1556 1557 1557 1558 1559 1560 1561 1562 1562 1563 1564 1564 1564 1564 1565 1566 1567 1568 1569 1570 1571 1572 1573 1573 1574 1574 1575 1575 1576 1576
1539 1540 1541 1543 1544 1546 1547 1547 1548 1549 1550 1551 1553 1555 1555 1556 1557 1557 1558 1559 1560 1562 1563 1563 1562 1562 1563 1564 1565 1566 1567 1568 1569 1570 1571 1571 1572 1573 1573 1573 1574 1575
1537 1538 1540 1542 1543 1544 1545 1545 1546 1547 1548 1549 1551 1553 1554 1554 1555 1555 1556 1557 1558 1559 1561 1561 1561 1561 1562 1562 1563 1564 1565 1566 1567 1568 1568 1569 1570 1571 1571 1571 1572 1572
1535 1536 1538 1540 1541 1542 1543 1543 1545 1545 1546 1548 1549 1551 1552 1552 1553 1554 1555 1555 1556 1557 1559 1560 1560 1560 1561 1561 1562 1563 1564 1565 1565 1566 1567 1567 1568 1569 1569 1570 1570 1571
1533 1534 1536 1538 1539 1540 1541 1542 1543 1544 1545 1546 1547 1549 1551 1551 1552 1553 1553 1554 1555 1556 1557 1558 1558 1559 1559 1560 1561 1561 1562 1564 1564 1565 1566 1566 1567 1567 1568 1568 1569 1569
1531 1532 1534 1536 1538 1539 1539 1541 1542 1543 1544 1545 1546 1548 1549 1550 1551 1551 1552 1553 1554 1554 1555 1556 1557 1558 1558 1559 1560 1561 1562 1562 1563 1564 1565 1565 1565 1566 1566 1567 1567 1568
1529 1531 1533 1535 1537 1538 1539 1540 1541 1542 1543 1544 1545 1547 1548 1549 1551 1551 1551 1552 1553 1553 1554 1555 1555 1556 1557 1558 1559 1560 1560 1561 1562 1563 1563 1564 1564 1564 1565 1565 1565 1566
1528 1530 1533 1535 1537 1538 1539 1539 1540 1541 1542 1543 1543 1545 1547 1548 1550 1550 1551 1551 1552 1552 1553 1554 1554 1555 1555 1556 1557 1558 1559 1559 1560 1561 1562 1562 1562 1563 1564 1564 1564 1564
1527 1530 1532 1535 1537 1538 1539 1539 1540 1540 1541 1541 1542 1544 1545 1546 1548 1549 1549 1550 1550 1551 1551 1552 1553 1553 1554 1555 1556 1556 1557 1557 1557 1558 1559 1560 1560 1561 1561 1562 1562 1562
1528 1529 1531 1534 1537 1538 1538 1538 1537 1537 1538 1539 1541 1543 1543 1545 1546 1547 1547 1548 1548 1549 1550 1550 1551 1551 1552 1553 1554 1554 1554 1554 1555 1555 1555 1556 1557 1557 1558 1558 1558 1558
1529 1528 1529 1532 1535 1535 1535 1535 1534 1534 1536 1538 1540 1541 1542 1544 1545 1546 1546 1546 1546 1547 1548 1548 1548 1549 1549 1550 1551 1552 1552 1552 1553 1553 1553 1553 1554 1555 1556 1556 1556 1555
1524 1525 1526 1529 1531 1531 1532 1533 1534 1535 1536 1538 1540 1541 1541 1542 1543 1543 1544 1544 1544 1545 1546 1546 1546 1546 1547 1548 1548 1549 1550 1551 1551 1551 1551 1552 1553 1553 1554 1554 1554 1553
1521 1523 1525 1528 1530 1530 1531 1533 1533 1534 1536 1537 1539 1539 1540 1540 1540 1541 1541 1541 1542 1543 1544 1544 1544 1544 1545 1546 1546 1547 1548 1549 1549 1550 1550 1550 1551 1551 1551 1551 1550 1551
1521 1523 1524 1527 1529 1529 1530 1531 1532 1533 1534 1536 1537 1538 1538 1538 1539 1539 1539 1540 1540 1541 1542 1543 1543 1543 1544 1544 1545 1545 1546 1546 1546 1547 1547 1548 1548 1549 1549 1549 1548 1549
1520 1522 1523 1525 1527 1528 1529 1529 1530 1531 1532 1534 1534 1535 1536 1537 1537 1537 1538 1539 1539 1540 1541 1542 1542 1542 1542 1542 1542 1543 1543 1543 1544 1544 1544 1545 1546 1546 1546 1547 1547 1547
1519 1521 1522 1523 1524 1526 1527 1528 1529 1530 1530 1532 1532 1533 1534 1535 1535 1536 1537 1538 1539 1540 1540 1540 1540 1540 1540 1540 1540 1540 1541 1541 1541 1542 1542 1542 1543 1543 1544 1545 1546 1545
1518 1519 1521 1522 1523 1525 1526 1527 1528 1528 1529 1530 1531 1532 1533 1533 1534 1535 1536 1537 1538 1538 1538 1538 1538 1538 1538 1539 1539 1539 1539 1539 1539 1540 1540 1540 1541 1541 1541 1542 1543 1543
1518 1519 1520 1522 1522 1523 1525 1525 1526 1527 1528 1529 1530 1531 1532 1532 1533 1534 1535 1536 1536 1536 1536 1535 1535 1536 1537 1538 1538 1538 1538 1538 1537 1538 1537 1538 1538 1539 1539 1539 1540 1539
1518 1519 1520 1521 1522 1523 1524 1524 1525 1526 1527 1528 1529 1530 1531 1531 1532 1533 1533 1534 1534 1534 1533 1533 1533 1534 1535 1536 1536 1536 1536 1536 1536 1536 1536 1536 1536 1536 1536 1536 1537 1536
1517 1519 1520 1521 1522 1523 1523 1524 1524 1525 1526 1527 1528 1529 1530 1530 1531 1532 1532 1532 1532 1531 1532 1532 1532 1532 1533 1534 1535 1535 1535 1535 1534 1534 1534 1534 1533 1533 1533 1533 1534 1534
1517 1518 1519 1521 1522 1522 1523 1523 1524 1525 1526 1526 1527 1528 1529 1529 1530 1530 1531 1530 1530 1530 1530 1531 1531 1531 1532 1532 1533 1533 1533 1533 1532 1532 1532 1532 1531 1531 1530 1530 1530 1531
1517 1518 1519 1521 1521 1522 1523 1523 1524 1525 1525 1526 1527 1527 1528 1529 1529 1529 1529 1529 1528 1529 1529 1529 1529 1530 1530 1531 1531 1531 1531 1531 1531 1530 1530 1530 1530 1530 1529 1527 1527 1528
1518 1519 1520 1521 1522 1522 1523 1523 1524 1524 1525 1526 1526 1527 1527 1528 1528 1528 1528 1527 1527 1527 1527 1527 1528 1528 1529 1529 1529 1530 1530 1529 1529 1529 1529 1529 1529 1528 1528 1527 1526 1526
1518 1519 1520 1521 1522 1522 1523 1523 1523 1524 1525 1525 1526 1526 1527 1528 1528 1528 1527 1526 1526 1525 1526 1527 1527 1528 1528 1528 1529 1529 1528 1528 1528 1527 1527 1527 1527 1527 1527 1527 1526 1525